Вернуться в каталог

SITRO-AIS-22

АктивенСвязьSSO
NORAD 61740·PAYLOAD·🇷🇺 Russia
Это название спутника еще не подтверждено официальными источниками.

Запущен Nov 4, 2024 с Vostochny Cosmodrome

Loading…

Ближайшие Пролёты (ближайшие 24 часа)

TLE

СвежийSource: Space-Track

Эпоха: Sep 14, 2026, 20:38 UTC

1 61740U 24199F   26257.86020741  .00001685  00000-0  15372-3 0  9994
2 61740  97.3216  90.0982 0013656 116.6164 243.6459 14.96253655145326

Отслеживайте SITRO-AIS-22 в реальном времени с AllMySat

Download on the App Store